Hourly Data Report for September 20, 2017

All times are specified in Local Standard Time (LST). Add 1 hour to adjust for Daylight Saving Time where and when it is observed.

ENNADAI LAKE (AUT)
NUNAVUT

61°07'55.000" N
100°53'02.000" W
353.10 m
2301102
71923
WJC

Download Data

Hourly Data (September 2017)
Hourly Data Report for September 20, 2017
Temp Definition
°C
Dew Point Temp Definition
°C
Rel Hum Definition
%
Wind Dir Definition
10's deg

Wind Spd Definition
km/h
Visibility Definition
km
Stn Press Definition
kPa
Hmdx Definition


Wind Chill Definition


Weather Definition


TIME
00:00 2.7 1.7 93 13 17   97.45     LegendNANA
01:00 2.5 1.6 94 13 18   97.47     LegendNANA
02:00 1.8 1.1 95 11 20   97.44     LegendNANA
03:00 1.5 0.7 94 11 22   97.44     LegendNANA
04:00 1.9 1.1 95 10 19   97.43     LegendNANA
05:00 3.1 2.3 95 9 17   97.46     LegendNANA
06:00 3.1 1.8 92 11 24   97.47     LegendNANA
07:00 3.1 1.3 88 10 19   97.45     LegendNANA
08:00 2.6 2.0 95 10 26   97.43     LegendNANA
09:00 2.4 1.2 92 10 32   97.40     LegendNANA
10:00 2.7 1.4 91 9 31   97.37     LegendNANA
11:00 3.1 0.8 85 9 37   97.35     LegendNANA
12:00 3.2 0.3 81 10 33   97.30     LegendNANA
13:00 3.9 0.4 78 8 34   97.24     LegendNANA
14:00 5.4 0.6 71 8 34   97.18     LegendNANA
15:00 5.8 0.5 69 7 44   97.10     LegendNANA
16:00 5.6 0.4 69 7 44   97.09     LegendNANA
17:00 4.5 0.6 75 8 40   97.10     LegendNANA
18:00 4.5 0.9 77 7 40   97.05     LegendNANA
19:00 4.3 0.6 77 7 40   97.04     LegendNANA
20:00 3.9 0.4 78 7 43   96.99     LegendNANA
21:00 4.0 0.9 80 7 46   96.95     LegendNANA
22:00 3.7 0.6 80 7 43   96.92     LegendNANA
23:00 3.6 1.1 84 7 47   96.89     LegendNANA

Notes on Data Quality.

Legend

  • E = Estimated
  • M = Missing
  • NA = Not Available
  • ‡ = Partner data that is not subject to review by the National Climate Archives
Date modified: